Location: Alulod
(14.2076°N, 120.8898°E)
Time: 02:54:56
(UTC+00:00)

USA 238 DEB - Pass Details

Date: 14 March 2026
Orbit: 883 x 1328 km, 63.4° (Epoch: 10 January)

Event Time Altitude Azimuth Distance (km) Brightness Sun altitude
Rises 20:34:01 0° 354° (N) 4,157 6.8 -22.7°
Reaches altitude 10° 20:37:16 10° 6° (N) 3,246 6.3 -21.9°
Maximum altitude 20:43:50 28° 62° (ENE) 2,253 6.0 -20.4°
Drops below altitude 10° 20:50:34 10° 117° (ESE) 3,353 7.2 -18.7°
Sets 20:53:56 0° 128° (SE) 4,318 7.7 -17.9°
